Toronto, Ontario

5:25 PM EDT on April 27, 2017 (GMT -0400)
Toronto

Weather History for CYTZ - October, 2011

Change the Weather History Date:

Wednesday, October 19, 2011

  Actual Average Record
Temperature  
Mean Temperature 51 °F -  
Max Temperature 54 °F 49 °F 66 °F (2007)
Min Temperature 48 °F 38 °F 32 °F (2015)
Degree Days  
Heating Degree Days 14    
Growing Degree Days 1 (Base 50)    
Moisture  
Dew Point 46 °F    
Average Humidity 83    
Maximum Humidity 94    
Minimum Humidity 67    
Precipitation  
Precipitation 0.39 in 0.09 in - ()
Sea Level Pressure  
Sea Level Pressure 29.61 in    
Wind  
Wind Speed 20 mph ()    
Max Wind Speed 39 mph    
Max Gust Speed 48 mph    
Visibility 6.2 miles    
Events Rain , Thunderstorm    
Averages and records for this station are not official NWS values.
T = Trace of Precipitation, MM = Missing Value Source: Averaged Metar Reports

Daily Weather History Graph

Daily Weather History Graph

Search for Another Location

Airport or City:

Trip Planner

Search our weather history database for the weather conditions in past years. The results will help you decide how hot, cold, wet, or windy it might be!

Date:

Astronomy

Oct. 19, 2011 Rise Set
Actual Time 7:36 AM EDT 6:28 PM EDT
Civil Twilight 7:07 AM EDT 6:57 PM EDT
Nautical Twilight 6:33 AM EDT 7:30 PM EDT
Astronomical Twilight 6:00 AM EDT 8:03 PM EDT
Moon No Moon Rise 2:11 PM EDT (10/19)
Length of Visible Light 11h 49m
Length of Day
10h 51m
Waning Gibbous, 55% of the Moon is Illuminated
Oct 19
Waning Gibbous
Oct 19
Last Quarter
Oct 26
New
Nov 2
First Quarter
Nov 10
Full

Hourly Weather History & Observations

Time (EDT) Temp. Dew Point Humidity Pressure Visibility Wind Dir Wind Speed Gust Speed Precip Events Conditions
12:00 AM 51.8 °F 42.8 °F 71% 29.86 in 9.0 mi NE 10.4 mph - N/A Rain Light Rain
12:31 AM 51.8 °F 44.6 °F 76% 29.89 in 9.0 mi ENE 5.8 mph - N/A Rain Light Rain
12:43 AM 50.0 °F 42.8 °F 76% 29.88 in 9.0 mi ENE 10.4 mph - N/A Rain Light Rain
12:47 AM 50.0 °F 44.6 °F 82% 29.88 in 9.0 mi ENE 10.4 mph - N/A Rain Rain
12:54 AM 50.0 °F 44.6 °F 82% 29.86 in 8.0 mi NE 12.7 mph - N/A Rain Rain
1:00 AM 50.0 °F 44.6 °F 82% 29.85 in 9.0 mi NE 16.1 mph - N/A Rain Light Rain
1:36 AM 50.0 °F 44.6 °F 82% 29.83 in 9.0 mi NE 15.0 mph - N/A   Overcast
2:00 AM 50.0 °F 44.6 °F 82% 29.82 in 9.0 mi NE 18.4 mph - N/A   Mostly Cloudy
3:00 AM 50.0 °F 44.6 °F 82% 29.81 in 9.0 mi NE 17.3 mph 29.9 mph N/A   Mostly Cloudy
4:00 AM 50.0 °F 42.8 °F 76% 29.83 in 9.0 mi ENE 18.4 mph 25.3 mph N/A   Overcast
4:38 AM 50.0 °F 42.8 °F 76% 29.82 in 9.0 mi ENE 16.1 mph 26.5 mph N/A Rain Light Rain
5:00 AM 48.2 °F 42.8 °F 82% 29.82 in 6.0 mi NE 15.0 mph 25.3 mph N/A Rain Light Rain
5:05 AM 48.2 °F 42.8 °F 82% 29.81 in 5.0 mi NE 19.6 mph - N/A Rain Rain
5:15 AM 48.2 °F 42.8 °F 82% 29.83 in 6.0 mi ENE 16.1 mph 23.0 mph N/A Rain Light Rain
5:44 AM 48.2 °F 42.8 °F 82% 29.80 in 9.0 mi NE 17.3 mph 25.3 mph N/A   Overcast
6:00 AM 50.0 °F 44.6 °F 82% 29.80 in 9.0 mi NE 20.7 mph 26.5 mph N/A   Overcast
7:00 AM 50.0 °F 42.8 °F 76% 29.79 in 9.0 mi NE 24.2 mph - N/A   Overcast
7:46 AM 51.8 °F 44.6 °F 76% 29.75 in 9.0 mi ENE 26.5 mph 36.8 mph N/A Rain Light Rain
7:57 AM 51.8 °F 42.8 °F 71% 29.75 in 9.0 mi NE 24.2 mph 33.4 mph N/A   Overcast
8:00 AM 51.8 °F 42.8 °F 71% 29.75 in 9.0 mi NE 24.2 mph 33.4 mph N/A   Overcast
9:00 AM 51.8 °F 42.8 °F 71% 29.77 in 9.0 mi ENE 26.5 mph 38.0 mph N/A   Mostly Cloudy
10:00 AM 51.8 °F 42.8 °F 71% 29.76 in 9.0 mi ENE 26.5 mph 34.5 mph N/A   Overcast
11:00 AM 51.8 °F 41.0 °F 67% 29.73 in 9.0 mi NE 24.2 mph 32.2 mph N/A   Overcast
11:07 AM 51.8 °F 44.6 °F 76% 29.74 in 6.0 mi ENE 24.2 mph 35.7 mph N/A Rain Light Rain
11:24 AM 51.8 °F 42.8 °F 71% 29.73 in 9.0 mi ENE 28.8 mph 34.5 mph N/A   Overcast
11:31 AM 51.8 °F 44.6 °F 76% 29.73 in 9.0 mi ENE 25.3 mph 34.5 mph N/A Rain Light Rain
11:41 AM 51.8 °F 42.8 °F 71% 29.72 in 9.0 mi ENE 21.9 mph 32.2 mph N/A   Overcast
11:43 AM 51.8 °F 44.6 °F 76% 29.73 in 9.0 mi NE 21.9 mph 31.1 mph N/A Rain Light Rain
11:54 AM 51.8 °F 44.6 °F 76% 29.72 in 9.0 mi ENE 27.6 mph 35.7 mph N/A   Overcast
12:00 PM 51.8 °F 44.6 °F 76% 29.72 in 9.0 mi ENE 26.5 mph 35.7 mph N/A   Overcast
12:07 PM 51.8 °F 44.6 °F 76% 29.72 in 9.0 mi NE 25.3 mph 33.4 mph N/A Rain Light Rain
12:30 PM 51.8 °F 44.6 °F 76% 29.72 in 9.0 mi ENE 24.2 mph 32.2 mph N/A   Overcast
1:00 PM 51.8 °F 44.6 °F 76% 29.70 in 9.0 mi ENE 27.6 mph 33.4 mph N/A   Overcast
1:06 PM 51.8 °F 46.4 °F 82% 29.69 in 9.0 mi ENE 25.3 mph 36.8 mph N/A Rain Light Rain
1:56 PM 50.0 °F 44.6 °F 82% 29.67 in 5.0 mi ENE 27.6 mph 35.7 mph N/A Rain Light Rain
2:00 PM 50 °F 46 °F 80% 29.67 in 5 mi ENE 27.6 mph - - Rain Light Rain
2:00 PM 50.0 °F 46.4 °F 87% 29.67 in 5.0 mi ENE 27.6 mph 35.7 mph N/A Rain Light Rain
2:10 PM 50.0 °F 46.4 °F 87% 29.66 in 6.0 mi NE 20.7 mph 32.2 mph N/A Rain Light Rain
2:19 PM 50.0 °F 46.4 °F 87% 29.66 in 4.0 mi ENE 24.2 mph 32.2 mph N/A Rain Light Rain
2:32 PM 50.0 °F 44.6 °F 82% 29.65 in 6.0 mi NE 23.0 mph 29.9 mph N/A Rain Light Rain
2:41 PM 51.8 °F 46.4 °F 82% 29.64 in 9.0 mi NE 20.7 mph 28.8 mph N/A   Overcast
3:00 PM 51.8 °F 46.4 °F 82% 29.63 in 9.0 mi NE 19.6 mph 26.5 mph N/A   Overcast
4:00 PM 53.6 °F 46.4 °F 77% 29.61 in 9.0 mi ENE 23.0 mph 32.2 mph N/A   Overcast
4:10 PM 53.6 °F 46.4 °F 77% 29.60 in 9.0 mi NE 23.0 mph 29.9 mph N/A Rain Light Rain
4:19 PM 53.6 °F 44.6 °F 72% 29.59 in 9.0 mi NE 26.5 mph 34.5 mph N/A   Overcast
4:31 PM 53.6 °F 46.4 °F 77% 29.58 in 9.0 mi NE 25.3 mph 32.2 mph N/A Rain Light Rain
4:42 PM 53.6 °F 46.4 °F 77% 29.58 in 9.0 mi ENE 25.3 mph - N/A   Overcast
5:00 PM 53.6 °F 46.4 °F 77% 29.58 in 9.0 mi NE 23.0 mph 33.4 mph N/A   Overcast
5:07 PM 53.6 °F 46.4 °F 77% 29.58 in 9.0 mi NE 23.0 mph 31.1 mph N/A Rain Light Rain
5:24 PM 53.6 °F 48.2 °F 82% 29.57 in 5.0 mi ENE 24.2 mph 32.2 mph N/A Rain Light Rain
5:45 PM 53.6 °F 48.2 °F 82% 29.56 in 6.0 mi ENE 20.7 mph 29.9 mph N/A Rain Light Rain
5:58 PM 53.6 °F 48.2 °F 82% 29.56 in 9.0 mi ENE 26.5 mph 34.5 mph N/A   Overcast
6:00 PM 53.6 °F 48.2 °F 82% 29.56 in 9.0 mi ENE 25.3 mph 34.5 mph N/A   Overcast
6:01 PM 53.6 °F 48.2 °F 82% 29.56 in 9.0 mi NE 25.3 mph 34.5 mph N/A Rain Light Rain
6:03 PM 51.8 °F 48.2 °F 88% 29.55 in 5.0 mi ENE 25.3 mph 34.5 mph N/A Rain Light Rain
6:05 PM 51.8 °F 48.2 °F 88% 29.55 in 3.0 mi ENE 24.2 mph 34.5 mph N/A Rain Heavy Rain
6:07 PM 51.8 °F 48.2 °F 88% 29.55 in 2.5 mi ENE 24.2 mph 34.5 mph N/A Rain Heavy Rain
6:08 PM 51.8 °F 48.2 °F 88% 29.55 in 2.5 mi ENE 23.0 mph 31.1 mph N/A Rain Rain
6:12 PM 51.8 °F 48.2 °F 88% 29.55 in 2.0 mi NE 25.3 mph - N/A Rain Rain
6:20 PM 51.8 °F 48.2 °F 88% 29.55 in 2.2 mi NE 24.2 mph 31.1 mph N/A Rain Rain
6:41 PM 51.8 °F 48.2 °F 88% 29.54 in 3.0 mi NE 26.5 mph 35.7 mph N/A Rain Light Rain
7:00 PM 51.8 °F 48.2 °F 88% 29.54 in 3.0 mi ENE 27.6 mph 34.5 mph N/A Rain Rain
7:04 PM 51.8 °F 48.2 °F 88% 29.53 in 2.2 mi ENE 29.9 mph - N/A Rain Rain
7:25 PM 51.8 °F 48.2 °F 88% 29.51 in 2.0 mi ENE 28.8 mph 39.1 mph N/A Rain Rain
7:34 PM 51.8 °F 48.2 °F 88% 29.51 in 2.2 mi ENE 28.8 mph 39.1 mph N/A Rain Light Rain
7:45 PM 51.8 °F 48.2 °F 88% 29.51 in 3.0 mi NE 28.8 mph 39.1 mph N/A Rain Light Rain
8:00 PM 52 °F 49 °F 85% 29.50 in 4 mi NE 31.1 mph - - Rain Light Rain
8:00 PM 51.8 °F 48.2 °F 88% 29.50 in 4.0 mi NE 29.9 mph 43.7 mph N/A Rain Light Rain
8:09 PM 51.8 °F 48.2 °F 88% 29.49 in 6.0 mi NE 26.5 mph 38.0 mph N/A Rain Light Rain
8:33 PM 51.8 °F 48.2 °F 88% 29.47 in 5.0 mi NE 28.8 mph 42.6 mph N/A Rain Light Rain
9:27 PM 51.8 °F 48.2 °F 88% 29.43 in 2.5 mi ENE 39.1 mph 48.3 mph N/A Rain Light Rain
9:30 PM 51.8 °F 48.2 °F 88% 29.44 in 2.5 mi NE 31.1 mph 48.3 mph N/A Rain , Thunderstorm Light Thunderstorms and Rain
9:34 PM 51.8 °F 48.2 °F 88% 29.43 in 3.0 mi ENE 36.8 mph 48.3 mph N/A Rain , Thunderstorm Thunderstorms and Rain
9:45 PM 51.8 °F 48.2 °F 88% 29.42 in 3.0 mi NE 31.1 mph 43.7 mph N/A Rain Rain
10:00 PM 51.8 °F 48.2 °F 88% 29.41 in 3.0 mi ENE 35.7 mph 47.2 mph N/A Rain Light Rain
10:08 PM 51.8 °F 48.2 °F 88% 29.41 in 3.0 mi ENE 33.4 mph 47.2 mph N/A Rain Light Rain
10:33 PM 51.8 °F 48.2 °F 88% 29.40 in 3.0 mi ENE 32.2 mph 43.7 mph N/A Rain Rain
10:46 PM 51.8 °F 50.0 °F 94% 29.39 in 6.0 mi ENE 33.4 mph 44.9 mph N/A Rain Light Rain
11:00 PM 51.8 °F 50.0 °F 94% 29.37 in 8.0 mi ENE 31.1 mph 44.9 mph N/A Rain Light Rain
11:05 PM 51.8 °F 50.0 °F 94% 29.36 in 5.0 mi ENE 32.2 mph 42.6 mph N/A Rain Light Rain
11:23 PM 51.8 °F 50.0 °F 94% 29.35 in 2.5 mi ENE 36.8 mph 46.0 mph N/A Rain Light Rain
11:34 PM 51.8 °F 50.0 °F 94% 29.35 in 2.0 mi ENE 34.5 mph 41.4 mph N/A Rain Rain
11:36 PM 51.8 °F 50.0 °F 94% 29.34 in 1.8 mi ENE 33.4 mph 41.4 mph N/A Rain Heavy Rain
11:40 PM 51.8 °F 50.0 °F 94% 29.33 in 1.8 mi ENE 31.1 mph 41.4 mph N/A Rain Rain
11:41 PM 51.8 °F 50.0 °F 94% 29.33 in 1.8 mi ENE 32.2 mph 41.4 mph N/A Rain Rain
11:47 PM 51.8 °F 50.0 °F 94% 29.33 in 2.2 mi ENE 28.8 mph 41.4 mph N/A Rain Rain
11:50 PM 51.8 °F 50.0 °F 94% 29.33 in 2.2 mi ENE 26.5 mph 41.4 mph N/A Rain Rain
11:53 PM 51.8 °F 50.0 °F 94% 29.32 in 2.5 mi NE 33.4 mph 41.4 mph N/A Rain Rain
11:54 PM 51.8 °F 50.0 °F 94% 29.32 in 3.0 mi ENE 36.8 mph 44.9 mph N/A Rain Light Rain
11:55 PM 51.8 °F 50.0 °F 94% 29.32 in 3.0 mi ENE 38.0 mph 44.9 mph N/A Rain Light Rain